Theta_e
320 320 319 321 321 321 321 322 323 323 324 323 323 323 323 324 324 324 323 324 324 323 324 325 325 322 324 321 321 322 321 314 305 302 301 307 321 323 322 324 325 326 326 320 306 305 302 303 302 305 304 303 302 300 303 302 302 309 294 291 287 287 286 289 289 290 291 289 290 292 293 293 290 295 295 297 296 296 296 295 297 298 298 299 299 300 300 300
319 320 319 320 320 321 322 322 322 323 324 323 323 323 324 325 323 323 323 323 324 324 324 326 324 322 321 321 321 319 315 319 304 302 301 318 322 324 323 325 327 327 326 304 303 304 301 301 302 303 301 298 304 298 303 298 302 295 291 290 285 287 288 292 292 293 291 289 292 292 294 293 291 294 295 293 293 294 293 294 296 295 297 298 299 299 298 299
319 319 320 319 320 321 322 322 322 323 323 323 324 323 323 324 324 324 324 324 324 323 325 327 325 320 320 321 321 321 322 319 302 299 302 322 321 323 324 325 328 327 316 305 304 305 304 303 302 301 299 296 298 296 299 296 299 295 291 286 286 291 291 293 294 293 294 294 292 292 293 292 293 294 297 293 292 294 291 290 292 293 293 295 296 299 300 301
319 319 319 319 320 321 321 321 321 322 322 322 323 324 324 324 324 324 324 324 325 324 325 326 327 322 320 321 320 322 322 317 296 300 305 321 321 323 324 327 325 325 315 310 306 306 307 306 304 302 299 296 296 298 294 296 295 294 291 287 288 291 290 292 294 293 294 295 293 292 295 292 293 294 294 293 291 291 292 294 293 292 293 294 296 297 298 297
319 319 319 319 319 320 321 321 322 322 322 322 323 323 323 324 324 325 324 324 323 324 323 322 325 325 322 321 322 320 313 304 296 303 307 319 321 323 325 324 325 319 313 310 309 309 308 311 307 301 299 295 297 296 294 295 297 295 290 292 292 292 289 293 293 293 293 294 294 294 292 290 295 294 293 293 289 288 291 294 295 295 295 295 295 296 297 295
318 318 319 319 319 319 320 320 320 322 323 323 323 323 322 323 324 324 324 325 326 325 322 323 325 319 319 322 316 321 310 288 302 302 318 320 321 323 321 323 325 315 314 312 309 306 305 304 303 298 296 295 293 292 294 296 299 288 291 292 293 293 291 293 293 293 293 294 293 292 292 295 294 292 294 293 291 293 296 297 296 296 296 296 297 297 295 295
318 318 319 319 318 320 320 319 319 320 321 322 323 323 324 324 324 323 322 325 323 323 322 323 322 319 319 321 310 304 298 298 304 307 317 320 320 319 320 320 319 312 312 310 310 307 304 302 300 297 296 294 294 293 295 295 296 293 288 292 292 293 291 293 292 296 292 292 292 293 296 293 292 289 294 292 294 295 297 297 297 297 297 297 296 296 294 295
319 319 319 318 319 320 319 318 318 319 320 321 321 321 323 323 323 323 321 322 321 322 321 321 322 321 317 320 314 299 297 297 301 307 316 318 311 309 314 310 309 309 308 307 308 309 307 301 298 299 296 293 295 294 295 294 294 290 289 292 292 293 293 293 293 294 294 292 293 296 294 291 292 291 293 292 294 295 296 297 297 297 297 297 295 294 294 294
319 318 318 319 319 319 319 319 318 318 319 320 321 321 321 322 323 322 320 322 321 321 319 319 320 320 318 326 312 297 296 306 306 307 308 306 306 305 308 306 308 307 307 307 308 309 309 301 300 301 294 295 298 295 296 295 288 293 292 293 292 292 293 292 293 293 295 294 295 294 290 292 294 294 292 293 294 296 297 296 297 297 296 295 295 294 294 293
318 319 318 318 318 319 320 321 319 320 319 320 320 321 322 322 323 320 320 321 322 321 319 319 317 319 319 319 302 293 306 312 310 307 307 306 307 305 306 306 308 307 306 306 307 307 305 305 302 303 301 297 297 293 295 294 289 294 293 293 292 292 293 294 292 293 293 294 296 294 290 290 294 294 286 294 295 297 296 296 297 296 295 295 295 295 295 294
318 318 318 318 318 318 319 320 320 321 320 319 320 321 322 321 320 319 320 321 322 323 319 319 318 313 305 304 297 293 312 311 307 307 308 307 307 303 305 306 308 306 307 307 306 307 307 308 310 306 302 295 296 293 293 293 295 294 293 292 292 292 293 293 293 292 292 290 293 292 292 295 296 293 287 292 295 296 294 295 296 296 294 294 295 294 296 295
318 318 318 318 318 317 318 319 320 321 322 319 319 320 320 319 320 320 320 321 322 322 322 320 319 325 306 300 296 298 314 311 308 308 308 308 307 305 307 307 309 308 306 304 306 309 311 311 311 307 293 302 290 294 292 295 295 293 293 289 290 292 291 292 291 293 293 290 292 292 289 291 293 288 293 294 295 295 294 295 296 295 295 294 295 294 293 293
318 317 318 317 317 317 317 318 319 320 321 322 318 319 319 319 319 320 320 320 320 322 321 322 323 320 314 296 300 311 315 308 309 310 310 309 310 311 311 311 311 310 310 306 306 309 308 309 306 300 303 300 294 291 295 298 294 295 293 290 289 289 287 291 294 292 292 291 293 291 281 285 287 291 292 295 295 294 293 293 293 294 293 293 294 293 294 295
318 317 317 317 317 317 317 317 318 319 320 322 318 317 319 319 319 320 319 320 320 322 321 322 323 310 303 297 311 316 315 310 311 308 308 309 308 313 307 312 315 312 313 311 311 310 313 308 304 302 305 298 294 301 294 294 295 290 292 292 287 287 284 291 291 291 290 292 292 292 283 284 289 291 293 295 296 293 291 292 293 293 294 294 294 293 293 294
317 316 317 316 316 317 316 318 317 318 318 320 318 316 318 317 318 319 320 317 317 321 323 320 326 323 299 301 312 318 319 311 306 307 310 307 305 307 306 310 311 314 312 312 311 314 314 313 308 300 297 303 300 297 291 291 291 293 289 287 290 286 286 290 292 291 288 292 293 291 284 284 288 290 293 295 294 293 291 291 292 293 293 293 292 292 292 293
316 316 316 316 316 316 316 317 317 318 318 318 318 317 317 318 317 318 318 317 318 323 332 319 315 309 301 299 311 318 315 304 303 310 310 314 308 306 308 309 311 316 315 312 314 316 313 310 301 300 299 301 299 294 292 290 290 293 291 285 285 288 286 287 290 291 292 290 292 290 283 287 287 291 292 294 294 295 291 291 292 293 293 292 292 292 292 293
315 316 314 315 315 315 317 318 315 317 317 317 316 317 318 318 319 318 318 317 323 330 316 309 313 314 299 310 319 308 303 309 313 310 310 311 309 309 310 312 308 310 312 314 315 316 310 307 302 302 298 293 293 295 288 287 286 287 291 284 287 285 286 285 288 290 290 290 288 290 286 287 289 290 292 293 294 292 290 290 291 292 291 292 292 291 291 292
315 315 314 315 315 316 317 316 318 316 316 316 315 316 318 321 320 317 318 320 322 321 319 317 314 310 300 307 297 300 307 308 310 305 309 309 308 309 311 309 310 310 310 311 309 304 307 300 303 291 293 290 289 288 286 280 283 284 284 285 286 287 287 285 285 287 288 289 287 288 286 288 289 290 291 292 293 291 289 291 291 291 291 291 291 291 291 292
314 314 314 314 314 315 317 315 315 316 316 317 317 319 317 320 321 310 307 309 311 305 301 299 302 292 286 298 305 306 306 314 308 309 304 307 310 311 311 314 311 308 306 301 299 302 301 296 295 288 284 284 285 286 283 286 288 287 287 286 286 284 285 284 288 289 288 286 285 286 285 286 289 289 290 291 291 290 290 291 291 292 291 291 292 292 291 292
314 313 314 314 314 316 315 315 315 316 315 319 327 325 321 317 309 304 304 304 300 300 303 305 305 305 305 303 301 305 309 311 307 305 305 308 307 307 311 311 311 304 300 295 299 297 299 287 283 281 283 285 288 288 288 289 289 289 289 288 285 285 289 288 287 288 290 286 285 287 286 286 287 289 290 290 291 290 290 289 290 290 291 291 291 291 291 291
313 313 313 314 314 315 315 315 315 318 315 324 324 318 312 310 304 292 298 300 304 306 303 304 303 301 300 303 305 302 301 310 308 302 303 307 311 308 302 306 304 298 297 299 296 300 297 285 283 286 287 288 288 289 289 288 289 288 287 287 285 287 286 289 287 289 290 286 285 288 286 287 288 290 289 290 289 288 290 289 289 289 289 290 290 290 290 291
312 313 313 314 312 315 316 314 315 318 319 323 315 307 306 301 305 306 306 294 303 306 307 305 308 305 305 307 308 304 304 303 302 301 304 306 305 303 300 301 297 292 298 298 297 292 287 283 287 289 290 290 289 290 289 287 284 287 285 286 284 285 287 290 288 289 290 288 284 286 285 286 289 290 289 288 289 290 290 291 290 289 290 290 290 289 291 291
312 312 313 312 312 315 315 315 314 315 315 313 309 305 301 303 303 306 309 300 298 305 304 304 301 302 303 309 306 307 299 294 295 299 300 303 302 299 300 297 294 294 293 294 292 287 284 286 288 291 290 288 289 288 287 285 287 285 284 283 281 285 283 281 287 287 289 286 283 285 283 285 289 290 289 289 290 290 294 294 294 293 290 289 289 290 290 291
310 311 313 311 312 314 315 314 315 314 307 305 303 302 304 304 304 303 313 301 297 301 303 302 305 302 300 299 303 304 299 299 298 295 304 301 297 299 299 295 294 293 290 290 289 285 284 289 292 290 289 288 286 286 283 283 284 284 285 281 281 282 279 280 282 286 288 290 289 285 283 283 287 286 286 289 290 292 292 292 292 291 292 292 293 292 293 291
310 311 312 314 312 314 314 315 309 309 312 311 304 305 303 304 303 302 310 299 301 301 306 305 305 302 303 305 309 305 302 301 299 303 305 301 296 301 296 298 295 287 293 294 291 288 287 291 292 290 290 290 287 283 280 278 283 282 280 282 281 282 280 282 285 284 281 281 286 283 279 282 284 285 285 287 287 287 289 287 286 289 290 290 290 291 292 294
310 310 312 313 312 314 314 314 309 312 315 304 305 304 305 305 305 301 308 292 287 293 307 296 310 299 305 302 307 301 301 297 300 303 306 303 302 299 298 293 295 288 292 290 287 287 288 293 291 285 288 288 288 282 284 283 280 281 280 283 285 283 282 282 283 282 280 279 281 284 277 276 282 283 286 286 287 287 289 288 287 289 290 290 292 292 291 292
310 310 312 312 312 315 317 311 314 311 315 309 303 305 304 305 306 304 300 290 286 292 294 304 307 302 309 304 305 303 291 293 305 305 302 305 300 303 298 292 295 289 286 282 286 282 289 290 288 286 286 286 284 283 285 284 280 280 282 285 284 282 282 283 283 279 279 283 281 280 280 276 277 283 287 288 287 286 288 289 289 290 290 291 291 291 292 292
310 310 310 311 312 312 314 309 313 311 307 304 303 305 303 304 305 305 297 282 279 297 293 298 302 308 308 306 305 297 297 299 296 299 303 304 304 302 297 292 290 293 292 287 283 284 288 288 286 285 284 283 281 282 285 286 282 283 286 286 284 284 284 283 280 279 281 278 280 279 278 277 277 281 286 286 283 286 287 288 288 289 290 290 291 291 292 292
310 310 311 314 313 312 312 312 313 307 304 303 303 303 304 306 304 299 289 280 285 292 305 301 311 307 302 307 302 301 300 300 294 299 305 305 305 301 293 295 296 293 293 294 284 286 287 287 286 288 285 281 284 285 286 287 281 287 288 287 286 285 284 284 281 281 282 278 279 276 277 276 276 281 284 285 284 284 286 287 288 289 290 290 291 292 292 291
309 310 311 311 318 317 309 308 300 303 303 303 304 303 305 307 306 291 283 277 290 286 300 301 301 292 299 299 298 299 297 298 299 300 303 298 300 303 296 298 297 293 290 291 288 289 288 291 293 288 283 287 285 286 287 286 286 289 286 283 283 283 280 281 280 280 279 277 278 277 278 278 274 281 282 280 281 286 286 287 288 290 290 291 291 291 292 291
309 309 310 310 304 304 304 304 304 301 303 303 305 304 306 307 290 287 277 283 294 289 299 295 293 299 294 293 290 296 296 296 297 297 294 301 295 296 297 293 298 293 287 287 285 289 290 289 289 289 290 290 288 287 288 286 287 286 283 282 281 281 281 279 281 280 276 280 278 279 278 281 275 280 284 286 287 287 287 286 287 287 288 290 291 291 291 291
308 310 308 307 307 309 307 307 303 304 304 304 305 310 306 290 290 284 281 297 284 287 286 290 294 291 293 293 292 290 286 295 295 294 289 288 287 287 286 283 282 284 284 283 284 289 286 286 286 289 291 288 286 284 287 286 285 282 282 283 280 282 281 279 281 277 280 278 278 278 281 278 276 281 285 286 287 288 289 289 289 288 288 289 289 291 290 291
309 308 309 306 308 303 301 301 303 303 303 304 308 308 292 288 279 284 283 284 284 288 289 294 291 291 290 286 287 290 289 289 294 295 293 291 290 286 288 287 287 285 282 284 286 285 285 285 289 289 289 291 288 283 281 282 284 284 280 278 280 276 276 273 277 280 280 279 279 277 281 277 282 285 287 286 288 288 289 290 290 290 289 289 289 290 290 291
309 309 307 305 303 302 302 303 303 303 304 308 308 294 290 285 282 287 280 285 284 287 292 290 292 293 286 287 289 287 285 291 289 291 292 287 286 284 286 289 287 283 286 285 282 281 282 283 285 285 283 287 287 283 283 281 281 282 284 281 280 279 276 273 276 273 274 278 280 280 277 278 278 282 287 287 287 290 288 289 290 290 290 289 289 290 290 290
308 307 308 305 306 304 305 304 304 304 304 309 300 292 287 284 285 284 284 284 284 288 288 283 290 289 286 286 287 289 289 287 291 288 287 285 282 282 282 283 287 286 284 283 284 283 284 284 285 288 286 287 285 287 287 283 281 281 284 285 281 277 279 278 279 278 274 274 275 277 277 279 281 287 288 288 287 288 289 289 289 289 289 289 290 290 290 291
307 312 312 310 307 306 306 305 304 303 307 306 293 290 288 285 286 286 287 294 289 285 286 287 290 287 288 287 285 287 292 286 289 286 285 284 284 283 285 284 282 285 279 282 282 281 283 282 286 287 288 285 284 287 287 284 282 282 284 280 279 281 279 278 275 274 275 273 273 281 281 284 284 285 287 287 287 286 288 288 288 288 289 290 289 290 290 291
312 312 310 310 307 306 305 305 304 304 308 301 292 288 285 282 281 286 291 291 291 293 288 286 285 285 286 286 287 287 286 288 286 286 284 284 282 282 284 285 287 285 284 283 282 283 280 281 286 286 285 285 286 286 286 287 285 282 281 280 283 282 281 277 276 275 276 275 277 280 278 280 281 280 284 286 284 285 286 287 289 288 289 289 289 290 291 291
312 309 309 308 306 306 305 305 304 307 306 296 285 288 282 282 287 288 290 290 290 288 287 286 285 285 285 286 286 287 289 286 286 284 283 284 283 288 285 285 287 286 285 284 282 282 283 280 283 284 285 286 287 286 285 288 287 284 282 282 281 279 278 280 277 272 270 271 275 279 279 280 281 281 280 282 283 285 286 287 287 288 289 289 289 289 290 290
310 308 309 308 308 306 305 304 305 308 298 290 287 288 282 283 287 288 289 289 290 290 288 286 285 282 283 286 286 286 285 284 285 284 284 283 283 286 286 286 285 287 286 286 282 283 284 280 283 283 284 286 285 282 282 282 285 281 285 282 281 280 277 276 277 276 277 272 274 275 278 277 284 282 283 285 285 287 286 286 287 288 288 289 288 289 290 290
310 307 306 309 306 306 306 303 309 302 293 290 288 283 281 282 286 289 288 290 286 286 288 288 283 284 283 282 284 284 286 285 284 284 283 283 285 289 286 288 283 286 287 287 283 284 282 283 280 282 280 283 282 281 280 280 281 282 280 281 281 280 278 278 278 276 276 273 274 272 272 278 284 286 287 287 287 287 287 288 288 289 289 289 288 289 290 290
305 302 304 307 305 305 304 305 293 290 285 282 282 281 282 281 286 289 291 291 289 290 289 288 287 285 284 284 284 283 285 285 284 284 284 283 283 283 285 285 286 285 284 280 282 281 281 282 280 282 282 282 280 280 280 281 281 281 279 280 280 278 278 275 275 273 274 275 273 272 273 279 287 287 288 287 288 288 289 288 288 288 289 289 289 289 289 290
306 292 303 307 304 305 307 292 289 290 290 286 284 284 284 290 283 286 286 286 287 286 286 287 287 286 283 283 285 283 282 285 283 284 283 283 286 285 285 288 286 285 281 282 282 284 282 279 280 279 281 281 280 281 282 282 280 276 279 280 280 280 278 278 273 274 274 273 273 274 271 276 286 286 287 288 287 287 287 288 287 288 289 289 289 289 290 291
303 296 309 305 305 308 304 289 291 288 282 282 284 287 288 286 284 286 285 285 282 286 287 285 288 285 283 284 280 281 282 285 284 284 285 283 279 283 286 286 286 287 284 282 284 281 286 280 279 281 280 280 280 281 281 280 280 280 278 280 280 278 280 278 277 275 274 274 273 273 270 277 287 286 286 286 287 286 286 286 287 288 288 289 289 290 290 290
303 303 306 310 305 307 305 290 288 284 282 281 283 283 289 284 285 281 281 285 286 283 289 287 286 286 284 285 283 281 282 283 285 285 285 284 283 287 287 286 282 282 282 282 280 283 279 281 278 276 281 281 279 278 278 276 277 279 280 280 281 281 279 280 278 278 274 275 275 274 271 279 286 284 284 286 286 286 287 288 288 287 289 290 290 290 290 291
300 303 296 305 309 306 298 292 289 286 283 280 280 280 283 284 286 286 287 284 288 285 286 286 288 286 281 282 278 280 277 281 283 283 284 285 283 286 286 287 284 283 287 287 288 284 281 280 279 277 274 273 274 276 277 279 279 280 281 281 282 281 280 278 275 275 272 275 277 273 275 282 285 284 286 286 286 286 288 289 290 290 290 290 290 291 291 291
294 291 295 299 300 298 292 295 292 287 284 281 282 283 285 282 286 288 286 285 286 287 284 287 284 287 283 283 280 280 279 280 281 282 282 284 282 283 283 286 286 284 286 286 286 282 279 280 278 278 277 279 281 282 284 283 281 279 281 280 281 281 281 281 279 276 274 275 275 279 280 283 284 286 286 287 288 288 289 290 289 289 289 289 289 290 290 291
296 294 289 289 292 292 289 291 287 289 285 289 286 283 282 285 285 283 283 281 286 283 281 286 285 283 283 285 280 280 278 278 277 277 279 285 283 282 283 285 286 286 287 286 284 281 278 277 279 277 280 281 283 282 283 283 280 281 281 281 281 281 281 280 277 276 279 277 276 281 282 281 283 286 287 288 289 289 290 289 289 290 289 290 290 290 291 290
294 290 292 287 290 289 292 288 290 287 291 288 285 287 284 283 284 281 283 286 283 281 282 282 283 286 286 285 284 282 279 278 277 279 280 282 283 281 281 283 283 285 285 283 283 280 278 276 280 279 279 281 282 282 282 282 281 281 281 281 281 281 280 278 279 281 281 276 277 281 281 280 283 286 287 288 289 289 289 290 290 290 290 290 289 289 289 289
293 289 288 286 291 286 288 289 293 292 288 288 284 287 283 283 283 286 283 282 283 282 284 282 282 284 286 288 286 283 279 282 281 280 279 281 282 282 281 281 282 284 283 280 278 277 278 277 279 279 278 280 280 281 281 280 280 281 281 281 282 281 281 281 281 281 281 280 282 282 282 282 284 286 288 289 290 290 291 290 290 289 290 290 289 289 289 290
292 293 289 288 288 285 288 288 291 292 287 288 285 285 287 285 284 284 285 281 280 281 286 282 283 287 287 287 286 284 284 286 285 282 284 282 280 282 283 285 279 280 281 278 277 275 277 278 281 277 275 277 281 281 281 280 281 280 281 281 281 281 281 281 281 281 281 281 282 282 281 281 286 288 288 290 290 290 290 289 289 290 290 290 289 289 290 290
294 292 295 291 290 286 287 289 289 289 288 285 286 288 288 287 286 287 286 289 288 283 281 283 286 286 287 286 286 286 291 289 288 288 287 285 283 284 283 283 283 278 280 278 278 276 277 277 277 276 275 276 278 278 280 281 281 279 280 281 281 280 278 280 280 282 280 279 280 279 279 280 286 287 288 288 288 287 288 289 290 290 290 290 289 290 290 290
298 296 295 295 290 288 289 288 287 286 286 288 291 289 287 289 290 287 284 290 289 290 287 289 287 284 283 285 285 288 290 289 289 288 287 286 286 284 284 285 286 281 279 279 280 277 276 277 277 277 274 275 279 281 280 280 279 279 280 282 282 282 282 281 282 282 283 283 280 276 279 285 287 288 286 287 287 288 288 289 289 289 290 289 290 290 290 290
Wind_Speed
10 10 10 9 9 9 8 9 10 10 11 11 12 12 11 11 11 11 11 12 12 13 12 11 11 11 6 5 6 6 6 2 18 22 24 9 11 21 21 21 20 19 18 11 12 2 2 6 4 3 6 4 4 4 4 8 7 1 5 6 9 5 7 3 6 4 4 5 3 4 4 4 4 2 3 2 6 5 3 5 6 3 6 4 3 4 4 3
11 11 10 10 10 10 10 11 10 11 11 11 11 11 10 10 11 11 10 11 12 12 12 10 11 8 2 0 1 5 2 2 12 23 17 15 23 23 24 23 19 16 14 9 11 11 6 7 8 7 5 6 5 6 5 3 6 6 4 7 7 3 3 4 4 5 4 4 6 4 3 5 4 4 3 4 5 4 6 6 6 6 5 6 5 5 4 4
11 11 11 11 11 11 11 11 11 11 11 10 10 9 9 9 9 10 11 10 10 11 11 10 7 5 3 3 2 1 2 2 21 22 17 23 26 24 25 23 18 19 9 8 6 8 8 5 6 6 7 9 9 7 9 7 5 11 7 9 7 5 6 8 7 7 6 3 5 4 3 5 3 2 3 2 5 4 6 5 4 5 6 7 6 5 4 3
11 11 11 11 11 11 11 11 11 10 9 10 9 9 9 8 8 9 9 9 10 11 11 11 7 3 1 3 5 3 0 3 13 11 14 25 26 25 24 21 21 17 8 6 4 5 5 7 5 4 5 12 5 10 13 9 4 5 7 4 4 3 4 6 7 7 6 6 5 4 0 4 3 3 4 6 3 5 4 6 5 6 6 6 6 5 5 4
12 11 11 11 11 10 10 10 9 9 8 8 8 9 9 9 10 9 9 9 9 10 9 9 9 6 2 4 4 2 2 1 5 10 15 25 24 24 22 22 21 13 8 9 9 7 6 1 4 9 9 7 4 7 9 8 8 6 8 7 7 5 7 6 7 6 4 3 2 0 3 4 2 3 5 7 7 3 3 4 3 4 4 5 6 6 4 5
12 11 11 10 10 9 9 10 9 9 9 8 8 9 9 9 9 9 8 8 9 9 10 9 8 10 11 3 2 2 2 3 5 10 20 23 23 21 22 21 16 10 7 10 9 7 5 7 5 5 6 8 10 11 6 5 0 9 6 9 8 6 7 4 6 4 4 2 3 3 3 1 2 4 3 5 5 2 2 2 2 3 3 4 5 3 4 4
11 10 10 9 9 8 8 9 9 9 9 8 8 8 9 10 9 8 10 8 10 11 11 7 5 3 5 7 13 22 15 4 5 11 21 21 21 21 21 15 13 9 13 13 11 8 8 6 11 9 7 12 11 12 11 13 11 11 8 6 8 7 9 6 5 1 2 5 4 2 2 1 3 2 1 4 2 3 1 2 2 3 3 5 4 4 4 4
10 10 9 10 9 8 9 8 8 8 8 8 7 7 7 7 8 9 10 10 10 11 10 11 6 3 1 0 1 11 11 5 13 12 18 20 19 19 18 10 12 10 16 13 10 5 4 9 11 8 11 9 4 9 9 13 9 9 9 5 6 7 6 4 3 2 2 3 1 1 1 4 3 2 3 3 3 2 2 2 2 3 5 3 3 4 4 4
10 10 10 10 10 9 8 9 9 9 8 8 8 7 6 7 7 8 9 9 10 11 12 12 11 3 1 0 1 14 9 4 10 12 14 16 17 17 15 13 15 13 9 12 12 10 3 6 11 6 6 7 3 5 2 2 7 7 8 6 7 6 5 3 4 3 3 2 3 3 3 1 1 3 1 3 2 1 1 3 3 3 4 3 3 4 4 4
11 11 11 10 10 9 9 8 8 9 9 10 9 8 7 6 7 9 9 9 9 11 13 14 18 10 4 1 10 15 2 6 7 9 12 13 14 15 17 16 16 12 11 10 11 11 9 4 8 6 9 10 7 8 9 8 6 6 8 8 8 6 3 1 5 3 2 2 1 3 2 2 1 1 2 1 1 0 3 3 1 2 2 2 3 3 2 3
11 10 10 10 9 10 9 9 9 9 10 10 11 9 7 7 8 10 10 9 8 8 9 11 11 14 10 15 13 8 3 6 4 7 10 11 10 11 13 14 13 11 8 9 11 8 5 5 4 3 5 3 6 9 7 5 9 9 9 9 7 5 4 4 4 3 2 2 2 4 2 1 2 2 1 2 1 1 3 3 1 0 1 1 3 2 2 2
11 10 10 10 10 11 10 10 10 10 9 11 11 9 8 7 8 9 10 8 6 8 6 7 7 0 9 20 14 2 6 4 6 6 7 9 9 5 6 9 10 9 8 9 9 7 5 3 1 2 5 3 8 6 7 5 6 11 8 7 7 6 5 3 3 1 2 2 1 3 2 2 3 1 1 2 1 1 3 5 1 0 1 1 1 2 3 3
11 11 10 11 10 10 10 11 10 10 10 9 11 10 8 8 7 9 9 9 9 9 8 5 5 1 1 17 4 5 2 4 4 8 8 7 8 0 3 4 6 7 7 8 5 6 8 8 8 13 5 2 2 1 3 2 2 1 4 5 7 4 5 3 0 3 1 2 1 3 1 2 3 2 3 1 1 2 4 2 1 0 1 1 1 2 3 2
11 12 11 11 11 11 11 11 11 11 10 9 11 11 9 7 7 8 9 6 7 9 10 9 5 9 12 3 2 2 3 3 5 9 9 9 10 2 3 4 3 4 4 4 3 4 3 3 12 8 3 4 3 1 5 2 1 2 2 0 2 2 2 2 2 4 4 2 2 2 1 2 2 3 3 1 1 1 3 4 1 1 1 2 2 2 2 3
12 12 12 12 11 11 11 10 12 11 11 9 10 11 10 5 6 6 8 9 12 10 5 5 1 0 8 2 2 3 7 2 6 7 5 8 9 3 7 8 4 3 1 3 1 3 2 2 2 5 4 3 5 1 3 3 3 1 2 1 1 4 1 3 4 6 4 1 5 1 2 3 2 4 3 2 1 1 2 4 1 1 1 1 3 3 2 3
12 12 12 12 12 11 10 10 10 9 9 9 9 9 11 9 5 5 3 2 10 11 1 3 7 7 12 4 1 0 1 8 10 7 4 3 3 3 6 7 5 1 3 1 0 2 1 4 7 3 2 1 1 1 1 2 1 3 1 0 3 3 4 3 3 5 4 4 4 4 3 2 2 4 4 3 2 0 3 4 2 1 1 2 1 2 2 3
13 13 13 12 12 11 9 8 9 8 8 8 9 9 9 12 14 6 4 4 4 4 7 3 5 2 6 1 1 3 4 4 5 4 6 3 1 3 6 2 1 4 0 3 3 0 2 3 1 1 6 5 6 2 1 1 3 4 3 2 1 2 3 1 2 6 6 3 1 5 3 1 1 4 5 4 1 2 3 3 2 2 1 1 2 2 3 4
14 13 13 12 12 11 9 9 8 8 7 6 4 5 7 11 11 11 4 1 0 1 2 4 2 2 5 4 4 6 5 4 7 7 5 6 2 4 3 2 1 3 2 1 3 6 3 2 3 4 4 10 12 10 3 2 2 3 4 3 1 0 2 3 2 4 5 5 4 4 4 5 3 2 4 3 3 2 3 2 1 2 2 3 3 3 3 4
13 13 12 12 11 11 9 11 11 9 7 5 4 5 6 7 3 9 12 7 5 4 5 10 9 6 0 7 4 7 4 2 4 4 10 7 3 3 3 3 4 3 0 3 3 5 4 4 5 8 11 11 10 8 5 3 5 3 3 1 1 3 1 1 1 2 4 4 4 4 2 4 5 2 3 4 4 1 1 2 1 1 1 1 2 1 3 4
14 14 13 13 12 10 10 10 11 6 4 3 1 1 1 1 2 3 8 16 12 8 4 2 4 5 2 3 7 6 7 2 3 10 11 5 6 5 1 1 1 7 5 3 3 6 3 11 7 3 4 6 6 5 5 6 3 4 2 2 2 2 0 2 3 2 2 3 4 5 4 4 4 5 1 3 1 2 4 2 1 2 0 1 2 2 3 4
16 14 12 12 12 10 10 11 11 7 0 1 2 2 1 1 2 3 2 7 3 4 5 4 5 4 2 3 4 7 4 1 3 11 10 11 3 1 7 5 3 5 3 2 4 4 3 13 6 3 2 3 5 4 4 7 3 3 3 3 2 2 1 1 1 1 1 2 3 1 3 5 5 5 4 4 3 4 1 1 1 4 4 3 3 3 4 3
16 15 14 12 14 11 10 10 12 12 3 1 5 4 2 2 1 2 1 4 3 2 3 2 2 2 2 2 1 3 3 1 9 16 12 14 7 3 5 6 5 7 3 1 1 6 11 7 3 3 3 3 6 3 3 3 3 5 2 3 2 1 4 0 4 1 1 1 5 5 8 10 7 7 3 4 4 0 1 1 0 0 2 3 3 3 4 4
17 16 14 14 14 10 10 10 9 10 4 6 4 4 2 2 3 1 2 8 4 2 3 2 4 4 3 3 2 3 4 13 4 10 12 11 4 8 3 5 8 8 14 9 3 3 6 3 4 2 2 3 1 6 5 2 3 2 4 2 2 3 3 1 1 3 3 1 3 5 8 11 8 6 4 3 2 1 4 2 0 0 1 2 3 2 4 2
18 16 14 15 15 11 9 9 9 5 8 7 7 4 2 2 3 3 0 2 3 2 2 1 2 2 3 4 3 5 5 3 2 11 8 5 5 4 2 4 6 8 10 11 12 12 5 2 1 2 2 3 3 3 9 5 1 4 3 1 2 3 2 1 4 6 8 2 2 7 7 5 3 2 2 2 2 2 1 2 2 3 3 2 4 5 0 2
18 17 15 14 16 11 8 9 5 3 1 3 4 1 1 2 2 2 1 1 1 2 3 0 1 3 1 2 3 1 1 3 4 1 3 4 7 2 2 1 1 5 1 3 7 9 4 1 0 3 3 3 2 1 5 4 2 1 0 0 1 2 3 4 5 7 3 1 1 3 5 0 1 4 3 3 2 2 4 5 4 4 3 5 4 1 2 2
14 17 16 13 15 13 8 2 1 1 2 3 2 1 1 1 2 2 1 1 2 4 1 5 2 3 2 4 2 1 1 3 2 2 1 1 3 2 2 3 2 3 3 4 5 3 2 0 1 1 3 3 0 2 1 1 2 1 1 2 2 2 3 4 5 3 2 2 2 0 3 5 0 2 2 4 3 5 3 6 4 2 2 2 1 1 2 2
15 15 15 15 14 14 1 0 0 0 0 1 2 2 1 1 1 1 1 0 2 2 2 1 1 2 0 3 4 3 2 4 0 3 2 1 3 1 3 2 1 2 2 1 1 3 2 4 6 2 1 1 1 1 1 2 1 1 1 3 2 3 2 2 2 2 3 0 1 3 2 1 3 1 1 2 0 3 4 3 4 4 1 1 0 1 1 1
15 15 15 15 12 11 2 2 0 1 1 2 2 2 2 2 1 2 0 1 0 2 2 3 1 2 2 4 9 5 2 5 1 4 3 1 1 1 4 3 3 1 1 1 5 3 3 3 4 5 4 3 1 2 2 1 0 1 1 2 2 1 3 3 0 2 2 1 1 2 0 1 2 1 2 2 1 3 1 3 4 3 2 2 0 1 1 1
15 16 16 12 9 6 6 3 2 2 2 2 2 2 1 2 1 1 0 0 1 1 4 1 2 1 4 4 4 3 0 4 3 3 3 0 2 1 3 2 1 5 4 0 5 1 1 1 1 3 1 3 2 3 2 2 1 1 2 2 2 1 1 2 2 2 3 2 1 1 2 1 4 0 1 1 2 2 2 3 3 3 1 1 1 0 1 1
15 16 17 16 4 2 3 3 5 0 2 3 2 2 3 1 1 1 1 2 1 0 2 3 1 5 3 1 1 5 5 2 2 4 1 3 4 3 2 1 0 3 4 7 7 2 2 1 1 1 1 2 3 4 2 4 4 2 3 1 2 1 1 1 2 2 2 0 0 0 2 1 3 1 4 2 2 1 1 2 2 1 1 1 2 2 1 1
12 14 17 13 6 1 3 2 2 2 1 2 3 3 1 1 1 0 1 0 1 1 1 4 2 3 4 5 2 5 2 2 4 4 3 1 6 5 2 1 2 0 2 1 4 1 1 1 0 0 2 3 3 4 3 1 1 1 2 2 1 1 0 0 0 1 2 0 0 1 1 2 1 1 2 2 3 3 2 2 3 3 4 3 3 3 3 3
11 10 14 9 2 2 1 2 2 2 2 3 4 1 0 1 1 2 2 1 1 1 2 1 1 1 3 1 3 5 3 4 2 3 5 2 6 8 9 3 4 1 2 4 2 1 0 1 0 1 2 2 3 3 2 0 1 1 3 1 2 1 1 2 1 3 0 1 1 0 2 0 4 3 4 4 4 3 2 1 1 2 3 3 3 3 3 3
10 9 5 8 4 4 2 1 1 2 3 3 1 0 2 0 0 1 0 1 0 1 0 1 1 2 1 1 2 3 1 2 4 1 2 2 2 2 5 9 2 1 2 3 1 1 1 3 2 1 1 2 5 3 6 2 4 7 5 5 3 4 4 1 3 2 0 1 2 3 3 1 2 1 1 4 3 4 1 2 1 0 2 3 3 4 4 5
9 9 2 2 5 3 1 1 1 2 3 1 0 3 2 1 1 2 1 0 1 1 3 1 3 1 4 3 2 3 2 1 2 4 4 1 4 3 4 6 11 5 1 3 3 3 3 2 2 3 2 5 3 3 0 2 4 4 0 2 1 2 1 1 2 2 4 5 2 0 0 1 3 2 2 4 4 1 2 1 1 2 3 4 4 4 5 4
7 5 2 3 2 3 1 0 1 2 2 0 3 2 1 1 1 1 1 0 1 0 0 1 1 0 1 1 0 0 1 1 2 2 6 4 3 3 5 7 7 3 2 0 1 0 1 1 1 3 2 3 3 1 1 1 2 4 3 0 2 0 1 1 1 1 3 5 7 0 2 3 2 0 2 2 2 2 1 3 3 3 4 4 4 4 4 4
4 2 3 1 1 1 1 0 1 3 1 2 2 1 1 0 1 2 1 1 2 1 1 0 0 1 0 0 1 1 1 0 2 1 2 3 0 2 1 1 3 4 2 2 2 2 3 2 1 0 3 1 1 2 1 1 3 3 3 3 1 1 0 1 1 1 1 2 6 2 3 2 1 1 1 0 0 3 3 3 3 3 2 1 4 5 4 4
2 2 0 1 1 1 1 0 2 2 1 2 1 1 0 1 1 1 4 2 1 1 1 1 1 1 0 0 0 0 1 1 1 1 1 0 2 1 1 0 1 2 2 1 2 0 0 5 1 1 1 0 0 1 1 2 1 2 2 1 1 2 2 1 1 1 0 1 2 2 3 5 2 3 1 1 2 4 5 2 0 3 3 2 3 3 3 4
1 1 0 1 2 1 1 1 2 1 1 4 4 3 0 1 1 2 2 2 0 1 1 0 0 0 0 0 0 1 1 1 2 2 1 0 0 1 0 0 1 2 1 1 1 1 1 3 1 1 1 1 1 1 1 0 2 2 1 1 1 0 2 1 1 3 3 4 4 3 3 4 3 2 0 3 3 5 4 3 3 2 1 1 3 3 4 4
1 1 0 1 1 2 1 1 2 1 1 6 1 1 1 1 1 2 2 2 1 1 1 0 1 1 0 1 0 1 3 2 2 2 0 1 1 1 0 0 1 1 1 3 2 2 0 0 2 1 1 0 0 0 1 1 2 2 2 1 0 1 2 1 0 1 1 4 4 7 2 4 0 1 3 1 6 2 3 2 2 2 3 3 4 3 4 5
1 0 0 1 1 1 2 2 1 5 5 4 1 2 0 2 1 2 1 2 1 1 1 1 0 1 1 0 0 1 1 1 2 1 1 2 1 1 0 2 2 0 4 1 1 1 1 2 2 1 3 2 1 3 1 2 0 1 1 0 1 1 1 1 1 0 1 0 1 3 7 3 1 1 0 1 2 3 2 2 3 4 4 5 5 4 4 5
1 1 1 0 0 1 1 3 10 6 4 0 3 3 0 2 1 1 2 4 0 1 0 1 1 1 0 0 0 1 1 1 1 1 1 0 1 0 1 2 3 2 1 1 1 3 0 1 1 4 4 0 0 1 2 2 1 0 1 1 1 2 3 3 3 1 1 0 1 1 9 8 7 1 1 2 0 1 1 2 4 6 6 5 5 5 5 5
1 1 1 0 1 1 0 6 3 1 2 2 1 0 1 2 1 0 1 1 1 1 0 1 2 2 1 2 0 0 1 0 0 0 1 0 0 1 1 3 4 0 2 1 0 0 1 1 1 5 3 1 1 1 1 0 1 1 0 1 2 1 1 0 2 1 1 1 0 0 1 11 4 1 0 0 1 1 2 3 5 6 7 6 6 5 5 5
2 1 1 0 1 0 4 5 2 4 3 0 2 1 0 0 1 2 0 1 1 2 0 1 1 2 2 1 1 2 1 0 1 0 0 0 0 1 1 4 4 1 0 0 0 0 1 0 1 4 1 0 1 1 2 2 0 1 1 2 0 0 1 1 1 1 1 0 1 2 2 10 4 1 0 1 1 2 3 5 7 6 6 6 6 5 5 5
1 2 1 0 1 0 1 1 1 2 1 0 0 1 1 1 0 1 1 1 1 0 1 1 1 2 1 1 1 2 1 1 2 1 0 1 0 1 3 3 4 1 1 2 1 2 1 0 2 4 2 1 1 0 1 1 1 1 2 3 2 2 3 2 2 2 1 5 5 3 6 7 2 0 3 3 3 4 6 7 6 8 7 6 6 5 5 5
1 0 0 2 1 0 2 0 4 4 2 3 1 2 0 1 2 1 0 1 0 0 0 0 0 1 2 1 1 1 1 1 0 0 1 0 1 0 3 2 1 1 3 1 2 1 1 1 1 2 3 4 3 4 3 2 2 2 1 3 3 5 4 1 1 1 2 2 4 3 8 8 1 1 2 4 5 5 5 5 5 3 4 5 5 5 5 5
1 1 1 1 5 5 4 1 3 5 6 3 2 1 1 1 0 1 2 1 1 0 1 2 0 0 2 0 2 2 3 2 1 0 1 1 1 1 0 1 2 1 1 1 2 1 0 0 1 3 3 5 3 1 1 1 3 2 1 5 4 4 5 4 2 1 6 3 6 12 8 14 21 14 5 6 4 8 10 7 6 5 5 5 5 5 5 6
0 1 1 3 3 6 4 4 2 3 3 4 1 3 1 1 2 0 1 1 0 0 0 0 1 2 2 0 1 2 0 3 2 1 3 0 1 1 1 1 3 3 3 0 2 1 1 1 5 5 7 9 6 7 6 4 6 7 7 6 6 6 6 7 8 7 2 1 10 6 9 9 17 13 10 12 12 11 10 7 7 6 5 6 7 7 8 7
1 1 0 1 1 1 1 3 4 4 3 2 1 0 4 3 1 1 1 0 1 1 1 0 0 3 4 2 4 1 1 1 1 2 0 0 1 1 1 1 1 3 2 0 2 0 0 2 1 0 5 6 7 9 9 8 6 7 7 6 5 7 8 11 12 11 2 4 12 4 2 6 17 15 16 15 12 11 11 10 8 6 7 7 7 8 7 7
2 1 1 1 1 0 0 1 1 4 5 3 1 1 2 3 4 2 3 1 1 1 2 1 3 7 5 2 1 1 3 0 3 2 3 1 2 1 1 1 1 2 1 1 1 0 1 3 0 0 6 8 12 13 10 8 6 6 9 10 9 8 12 14 13 8 12 14 14 15 16 20 20 20 19 15 12 12 11 7 6 7 9 9 8 8 7 7
0 0 0 1 2 2 0 0 0 1 2 1 1 3 4 4 4 1 0 3 2 1 1 1 3 3 5 4 2 1 4 3 1 1 2 3 1 1 1 0 3 0 1 1 1 1 1 2 4 1 2 5 7 7 4 5 4 9 9 9 10 10 10 11 9 10 9 14 17 18 18 21 21 13 10 11 11 8 7 7 8 8 8 8 8 8 7 7
0 0 0 3 1 0 0 0 1 0 1 1 1 1 1 4 4 5 1 1 0 5 5 4 4 3 1 3 2 3 3 1 3 1 3 3 2 1 2 1 6 4 3 1 1 1 1 2 1 0 3 5 2 3 5 5 7 10 17 11 11 9 7 8 10 9 9 12 9 5 9 14 17 4 8 7 6 6 8 9 9 8 7 7 7 8 7 7
0 1 1 1 1 1 0 1 1 2 1 3 2 3 2 4 3 6 1 2 2 2 4 2 3 4 1 1 6 3 1 3 4 2 3 3 4 3 3 1 1 7 5 3 3 3 3 0 2 2 3 4 0 2 9 11 9 7 9 10 14 12 10 3 6 6 12 12 5 5 12 11 6 1 4 5 6 8 8 7 8 7 7 6 7 9 9 8
Wind_Direction
7 5 3 358 353 352 351 349 347 351 353 356 358 356 353 349 347 341 340 335 334 328 328 326 318 318 303 309 298 296 319 303 22 31 36 21 341 333 330 326 326 319 323 303 319 291 17 54 77 83 63 40 359 33 338 20 342 12 65 88 72 79 62 28 50 60 120 110 96 63 347 19 68 10 94 228 230 131 135 64 153 152 83 63 69 47 14 340
6 2 0 355 353 350 350 350 352 355 356 357 353 350 347 346 341 338 332 338 334 332 325 319 335 345 314 5 304 287 345 323 28 34 37 350 346 339 332 330 322 324 320 347 357 1 26 59 61 53 48 55 347 41 341 38 358 48 63 56 86 42 67 49 34 44 92 75 94 80 18 58 58 314 6 332 72 37 32 42 21 24 25 23 23 27 3 307
4 2 359 356 353 352 351 354 354 356 357 352 349 344 344 341 334 332 336 335 326 328 319 314 334 356 18 303 231 119 32 270 30 15 357 353 342 335 332 325 321 322 333 323 336 340 7 26 76 70 56 76 18 40 34 7 12 27 88 77 62 78 75 56 55 55 39 119 95 94 61 62 30 4 299 5 357 50 56 18 9 11 357 358 0 7 314 300
6 4 2 358 356 355 354 353 354 352 351 350 344 340 334 333 331 327 321 321 321 323 322 317 308 290 273 272 231 280 334 4 49 345 343 344 338 331 328 323 319 316 301 286 293 313 327 32 23 61 87 65 65 46 44 356 64 344 60 71 126 120 96 53 52 45 38 9 84 69 191 83 32 12 12 339 258 67 52 45 16 349 348 345 349 334 314 4
9 7 6 2 0 359 0 357 352 352 351 347 344 339 334 333 330 326 323 322 324 328 328 323 317 310 280 221 240 230 73 313 17 340 338 335 337 329 323 325 318 309 285 263 253 247 249 49 68 51 48 60 36 61 45 49 62 78 62 90 96 95 83 76 68 32 19 1 73 274 41 53 216 38 14 17 42 28 8 19 8 343 346 335 331 308 338 3
11 11 6 0 359 5 6 8 6 1 352 347 343 337 333 325 327 326 327 317 319 325 344 335 329 346 352 64 216 203 170 67 316 331 332 335 331 328 328 320 328 337 354 21 19 44 65 55 63 37 48 58 43 64 33 52 198 91 57 58 61 67 94 78 69 22 331 23 34 31 46 276 30 93 358 53 41 30 37 21 349 331 327 312 283 309 353 356
11 9 4 355 356 354 4 6 6 4 1 353 342 332 323 324 323 336 341 330 333 338 345 343 321 327 309 16 71 69 71 124 341 316 332 334 329 332 333 329 358 16 35 30 23 39 25 66 69 85 99 76 61 73 63 63 58 86 87 77 71 72 76 72 80 349 28 16 58 41 258 3 344 56 336 62 56 44 1 33 313 303 302 280 308 2 345 357
8 4 2 358 353 349 4 358 360 1 357 350 344 338 328 322 327 339 340 340 342 340 338 344 329 206 108 129 334 59 58 360 331 332 333 332 333 340 338 356 4 30 42 30 14 29 17 47 68 73 56 69 95 88 94 76 55 83 89 93 104 93 85 93 100 73 57 84 73 287 277 59 16 40 301 70 57 5 37 319 301 277 272 290 9 357 355 351
7 4 2 357 353 349 345 350 353 356 356 352 342 340 343 334 326 334 341 337 343 345 345 350 0 200 356 235 118 64 22 336 313 330 341 335 333 342 354 14 355 34 39 30 21 18 62 26 53 8 121 96 94 121 181 75 53 65 97 104 100 94 106 113 108 93 81 80 11 292 76 62 70 18 11 68 45 72 289 252 233 247 278 25 6 359 1 336
6 3 358 352 348 340 339 335 344 351 355 356 348 337 343 336 327 339 337 341 338 351 353 355 8 351 91 157 62 67 327 317 318 338 340 339 330 343 7 10 6 24 36 17 30 24 43 37 75 70 86 72 53 43 47 71 126 126 112 107 107 118 117 124 93 106 112 77 349 312 114 107 89 105 127 86 80 73 285 277 192 259 1 11 10 358 330 348
5 360 355 346 348 349 345 345 343 342 355 357 355 343 331 340 344 342 344 335 336 340 350 356 348 40 52 58 68 84 339 323 345 343 339 341 331 0 5 2 0 22 39 37 40 23 13 28 347 80 58 85 75 49 58 99 121 116 120 110 103 111 113 135 119 116 238 109 357 341 76 2 107 220 43 26 49 314 275 288 267 19 17 8 356 353 302 39
2 355 354 348 347 351 348 346 348 345 340 355 356 352 340 339 348 341 342 327 319 331 329 330 354 88 75 67 56 38 323 308 331 351 345 338 339 353 326 8 3 17 33 54 34 14 7 329 311 57 132 205 76 116 73 125 124 142 138 104 126 117 83 51 65 87 285 87 329 43 320 245 232 145 66 90 289 309 280 262 259 59 41 353 13 327 8 36
0 355 354 350 346 346 348 351 352 349 343 343 355 351 343 338 342 345 339 353 347 339 332 356 310 129 36 54 20 257 296 311 322 348 350 348 322 170 270 35 9 16 24 50 34 8 32 29 75 69 26 63 70 4 165 163 155 162 324 139 150 141 79 23 112 134 257 92 298 116 19 135 131 115 133 120 322 296 291 300 26 97 12 358 2 1 359 18
360 355 353 348 345 344 343 348 353 350 346 337 344 351 342 330 340 337 339 327 339 345 331 337 29 52 79 120 156 232 247 333 308 2 359 341 3 345 12 2 48 15 5 55 38 354 12 37 68 89 43 61 120 195 102 170 74 236 91 103 206 179 54 54 7 345 192 143 181 187 1 119 152 142 142 140 227 306 299 293 321 42 25 342 5 355 8 9
0 354 352 347 347 342 342 341 349 348 343 336 337 346 358 335 314 331 340 346 345 327 305 318 233 175 50 88 257 260 304 264 359 3 9 353 357 344 356 336 353 19 305 56 49 323 345 336 72 49 59 23 83 132 133 203 204 166 87 303 11 59 159 88 23 27 29 182 195 246 273 98 124 147 141 176 230 236 296 291 291 39 357 355 3 346 8 6
358 353 352 346 345 339 338 338 340 339 334 331 321 327 14 22 334 301 295 292 305 339 327 40 357 89 98 67 25 144 2 13 356 348 334 16 347 348 306 287 280 331 10 28 49 319 20 44 66 78 123 244 178 267 167 213 211 189 130 13 5 352 137 140 62 27 359 301 228 199 292 301 125 150 149 148 231 262 280 288 319 15 18 357 1 330 4 3
356 353 349 345 342 332 333 329 336 325 323 319 319 302 320 9 10 295 277 257 322 313 61 25 340 58 58 232 173 6 1 338 343 337 340 33 23 304 314 347 358 337 208 313 348 177 333 55 271 33 41 46 344 345 40 43 53 28 22 103 276 41 328 106 181 40 337 343 314 191 239 317 109 129 156 165 189 265 274 288 338 1 348 1 313 356 6 359
354 349 345 341 337 327 329 328 322 330 321 309 294 298 315 328 352 41 17 296 138 81 128 99 179 40 90 72 7 327 322 300 345 310 309 340 153 329 340 341 322 277 307 292 23 17 321 50 356 92 42 28 26 17 68 108 308 342 350 7 25 153 110 66 1 354 349 356 328 282 242 262 151 176 159 153 159 221 262 298 358 326 336 323 344 343 11 345
351 348 341 341 338 333 329 339 337 327 314 298 274 274 270 279 261 56 33 353 47 7 29 348 4 73 258 323 299 289 311 306 302 343 348 0 322 265 254 261 232 331 5 64 344 19 358 58 34 36 21 3 18 16 42 354 337 9 353 16 244 353 10 40 117 60 21 337 329 272 266 317 317 296 165 153 161 200 280 277 224 264 222 289 290 314 14 338
352 351 345 342 336 330 331 338 333 326 342 322 258 289 294 66 28 8 3 44 61 67 89 304 33 89 94 19 340 304 251 18 338 1 3 359 321 330 358 14 278 47 29 33 358 44 13 71 42 32 348 358 353 360 336 318 307 309 259 315 340 315 85 135 98 359 359 313 242 257 315 290 274 265 202 140 125 212 234 219 240 237 198 260 296 7 12 354
353 347 342 336 337 331 332 331 342 344 113 298 288 6 345 356 87 83 40 75 63 50 80 69 81 74 71 272 318 356 11 290 66 10 10 299 201 305 358 347 3 48 46 338 78 18 51 69 24 40 351 340 328 326 323 323 308 329 324 281 275 170 312 107 85 67 17 43 306 262 276 272 280 289 208 143 146 246 205 26 354 7 344 327 322 15 4 348
349 344 340 342 341 336 327 335 344 355 264 43 57 81 81 75 301 25 127 68 38 326 93 150 246 70 195 284 183 87 192 285 8 7 348 8 2 53 325 52 48 46 347 151 343 43 47 64 34 13 350 324 269 287 281 304 325 291 273 303 321 349 309 147 92 89 306 336 259 330 328 286 278 276 192 156 197 195 106 111 352 355 304 307 352 348 353 332
351 343 341 344 345 329 331 324 343 15 34 28 51 69 62 9 337 168 286 125 89 302 50 24 42 33 20 179 1 219 37 39 330 2 354 343 2 54 324 44 43 44 40 27 70 66 58 51 358 341 311 315 287 33 348 286 258 352 355 8 353 2 12 314 73 350 341 300 301 310 291 287 280 248 183 172 173 159 113 124 223 272 299 311 319 319 286 308
355 346 339 347 346 337 325 323 298 20 49 69 66 57 50 11 330 343 244 68 127 350 58 336 33 36 52 7 348 10 51 17 10 340 351 6 38 291 31 18 54 52 63 61 72 79 97 332 323 357 275 261 317 24 25 4 155 13 54 43 329 13 321 222 308 324 292 243 259 284 267 284 223 195 189 201 150 106 178 161 223 223 193 255 262 267 168 359
356 350 338 333 346 341 323 326 35 36 245 82 68 82 47 20 317 28 104 26 50 51 337 68 263 98 330 250 280 55 69 144 50 278 335 27 351 348 58 196 45 18 43 114 92 82 72 96 240 273 265 241 272 19 13 29 342 106 73 355 282 292 301 301 305 323 350 294 312 33 357 311 210 203 201 153 97 246 190 161 234 249 197 199 248 151 59 6
350 354 344 337 343 338 315 24 77 303 38 54 35 14 38 329 323 350 53 130 66 314 212 10 189 350 181 6 359 92 253 64 269 299 307 79 171 104 241 30 14 112 25 57 96 87 49 125 215 298 303 326 7 94 310 10 310 286 253 269 347 294 266 287 300 20 324 346 290 345 85 286 340 266 222 137 188 245 153 174 203 190 160 240 285 43 54 350
345 351 348 345 343 340 335 176 334 63 262 76 42 347 358 284 289 273 63 350 43 311 23 299 117 3 295 329 321 156 33 347 88 300 40 2 23 209 62 7 95 73 92 136 34 4 326 17 352 339 282 283 70 25 40 32 318 278 223 276 310 254 273 264 270 181 249 223 320 45 63 230 316 294 132 105 330 290 279 165 161 144 184 208 292 18 48 325
344 349 352 351 340 9 34 132 275 72 39 10 332 338 316 293 225 235 46 75 300 295 341 343 69 301 8 316 2 66 172 275 1 11 120 292 151 9 77 53 82 10 132 77 87 253 79 357 356 358 353 53 68 218 302 42 189 256 209 358 290 301 295 314 81 277 250 48 320 337 354 74 244 271 27 73 325 277 79 96 132 163 178 167 258 26 328 287
346 345 346 340 337 337 31 34 31 73 7 345 335 299 304 310 228 59 119 111 247 35 205 26 256 48 356 313 49 45 57 355 65 279 339 105 11 175 65 23 49 74 45 103 149 214 287 129 287 286 24 2 265 291 244 204 245 63 316 187 262 337 321 306 352 299 282 55 279 304 312 55 293 289 201 273 249 305 25 74 115 126 136 131 217 223 252 262
349 349 348 341 330 18 14 78 51 77 298 335 304 304 286 276 35 29 32 277 42 337 359 286 35 300 304 289 87 22 34 8 108 307 348 56 13 53 65 355 108 41 55 34 72 71 151 299 279 219 47 279 283 270 243 204 223 34 31 358 251 241 250 214 226 286 350 19 232 257 327 36 296 248 199 168 224 128 341 18 33 67 127 196 179 214 238 267
350 354 358 357 60 8 282 78 48 10 334 290 293 282 306 23 86 108 120 224 51 265 248 38 355 319 18 41 24 338 36 21 2 7 5 330 13 22 41 57 324 98 64 95 64 179 157 205 278 105 222 299 232 295 174 181 347 10 264 263 187 258 163 187 247 156 61 334 247 173 228 14 163 314 38 100 97 54 76 23 11 10 347 5 6 352 349 328
349 356 6 31 329 313 13 118 347 350 311 312 305 305 350 35 14 75 187 314 127 337 74 325 77 343 20 311 87 347 354 326 43 23 9 3 29 31 14 70 339 40 13 7 342 2 166 37 275 258 153 65 339 269 238 11 178 222 237 237 34 356 60 10 167 6 112 271 238 159 332 3 239 243 137 124 128 105 75 89 38 347 323 333 332 317 302 305
338 342 14 26 348 70 65 303 295 317 321 278 291 264 58 96 24 254 208 347 222 68 6 207 353 359 6 10 44 346 166 34 312 35 139 302 101 60 89 58 316 191 89 313 342 353 258 320 324 265 32 359 351 43 335 357 340 348 33 344 37 19 28 344 335 259 33 300 205 156 219 216 237 120 118 126 100 126 107 126 210 85 270 282 287 291 294 286
333 328 48 17 70 87 121 313 266 306 293 238 11 39 43 62 217 21 134 337 248 314 25 32 338 244 33 77 318 359 14 224 348 341 9 13 51 41 359 41 31 357 21 332 50 330 11 353 352 2 351 316 44 56 147 229 312 313 217 62 122 80 95 355 21 335 256 267 280 289 47 245 0 238 91 112 122 113 159 212 187 221 241 249 252 259 269 278
329 304 147 185 161 94 117 149 268 268 276 313 51 81 83 205 178 169 191 160 252 11 195 300 6 355 348 61 354 119 129 344 13 1 21 29 12 21 357 340 357 14 255 68 353 307 153 216 278 348 219 318 20 169 204 318 289 257 279 174 38 137 268 195 247 276 312 346 327 296 200 181 179 147 103 122 111 245 215 233 224 246 246 242 254 263 266 269
305 193 222 70 26 51 61 325 287 257 310 45 79 50 53 175 165 15 120 16 89 121 171 343 307 31 57 113 334 28 280 87 323 52 33 52 320 70 228 11 351 3 9 81 268 357 3 266 212 166 314 32 93 314 63 141 55 307 18 42 219 218 88 330 51 17 89 73 253 242 324 352 329 326 152 201 198 237 188 252 228 260 257 254 266 263 261 263
247 170 335 2 80 30 35 340 293 283 308 78 79 113 19 18 220 312 12 3 173 2 126 89 325 89 153 149 108 11 305 63 317 55 23 98 44 24 26 153 224 10 100 93 23 177 153 272 104 291 305 174 346 10 286 319 102 314 43 220 105 67 103 112 338 299 282 303 276 9 313 300 3 295 323 175 242 217 201 219 285 266 247 252 275 270 273 279
298 43 70 50 337 37 334 33 303 280 31 78 65 95 201 99 325 15 335 308 308 351 134 3 274 57 214 203 21 5 306 84 321 41 95 217 153 280 324 313 46 35 331 70 100 314 78 321 310 299 206 108 23 358 329 255 150 82 160 186 75 307 5 296 128 348 2 326 297 285 316 274 200 245 335 239 223 209 196 191 227 262 284 267 275 288 293 295
275 259 335 337 50 25 2 293 338 40 56 67 141 132 13 85 14 32 356 309 271 293 48 3 119 342 108 28 313 145 359 71 318 41 85 354 70 287 272 232 317 324 350 15 38 352 337 47 311 299 347 281 85 63 41 323 355 345 9 7 355 114 152 299 192 230 121 265 4 292 11 263 253 176 227 194 202 168 156 225 233 264 266 271 274 277 291 288
258 352 335 205 23 328 36 6 27 39 56 94 56 70 292 71 61 73 25 349 55 26 45 21 289 102 15 208 7 39 317 35 23 271 105 312 110 324 35 188 10 7 0 28 350 141 334 103 296 285 313 6 350 11 75 21 30 352 10 75 2 85 216 143 271 149 163 217 265 303 318 282 243 255 147 85 127 162 157 217 263 265 269 276 276 277 273 276
113 110 265 153 340 271 198 34 49 35 78 129 51 106 97 154 174 104 66 354 113 60 85 45 5 82 184 24 11 334 41 34 356 17 32 334 89 272 9 35 337 10 1 355 69 350 346 328 263 318 343 307 138 38 1 354 31 97 106 81 140 353 353 16 293 32 353 105 267 325 275 282 282 168 311 106 160 115 209 217 259 277 276 274 279 280 272 272
311 49 279 97 58 38 37 53 39 334 77 99 86 40 110 184 66 68 42 14 6 115 325 98 46 88 42 68 244 35 23 33 33 291 346 163 274 46 67 315 32 7 45 41 57 153 128 234 336 290 237 262 101 131 318 54 202 174 170 108 27 148 144 137 282 298 358 251 129 195 1 275 256 271 119 112 123 263 243 226 249 264 273 277 273 265 266 255
34 258 171 97 117 25 64 79 82 46 65 25 277 66 70 46 100 293 355 285 54 287 81 56 343 62 348 114 308 69 1 125 75 244 192 129 187 33 36 31 342 316 15 192 131 47 32 70 302 260 63 81 155 189 177 44 348 6 280 279 334 139 171 155 140 151 247 208 110 32 247 260 276 305 308 267 225 275 283 257 252 257 265 274 274 278 275 280
260 310 332 175 163 81 86 111 92 55 92 321 175 123 345 162 71 89 83 346 33 355 33 130 258 12 147 334 51 145 308 112 326 106 223 265 97 38 48 54 23 60 48 208 132 282 62 236 141 289 302 311 20 37 335 321 33 259 234 190 184 96 67 108 85 48 336 218 186 151 243 263 280 272 295 304 269 266 265 265 239 258 273 271 279 284 284 279
271 198 343 298 124 13 111 223 121 133 143 131 138 73 125 39 22 21 340 98 305 79 325 97 98 130 71 104 92 79 331 103 244 307 171 321 105 11 83 85 296 93 37 71 270 271 141 282 55 18 9 351 331 318 297 310 233 211 204 134 201 145 154 105 124 143 159 281 165 198 256 251 271 26 284 257 253 269 271 287 302 273 288 296 299 294 289 287
30 61 299 2 16 44 74 248 76 123 137 155 98 218 129 97 291 86 1 77 6 201 36 135 255 189 121 131 71 40 32 319 137 274 347 150 141 128 313 120 57 80 126 260 349 205 62 352 203 207 199 228 237 249 162 93 327 284 216 165 198 198 182 168 68 194 212 201 208 237 231 290 295 279 287 293 313 309 307 312 306 306 296 291 283 278 271 263
244 74 354 331 354 52 86 38 95 111 158 201 118 160 136 89 138 63 290 41 223 100 119 321 198 140 218 131 161 108 289 336 42 63 237 244 89 114 203 267 98 114 197 244 10 18 61 339 247 218 243 245 271 276 275 333 277 272 274 259 196 182 186 186 178 211 161 106 273 242 227 235 261 286 301 303 304 303 301 297 300 298 289 284 281 277 271 270
79 252 105 197 140 311 12 2 35 81 53 79 86 81 137 136 185 152 331 24 87 296 110 319 6 266 181 167 149 162 140 26 93 228 321 313 136 173 132 278 224 181 201 57 341 100 176 210 319 244 263 277 277 278 282 285 259 258 259 265 245 199 188 198 221 216 231 181 235 235 336 293 278 282 283 284 286 285 287 290 283 283 293 293 290 287 282 275
90 103 101 196 83 103 87 233 337 102 72 73 120 125 155 169 176 175 158 102 322 271 211 210 239 219 215 223 143 117 158 153 274 259 204 189 208 157 192 89 70 124 200 137 32 321 74 234 236 198 278 274 272 268 264 250 263 262 250 244 239 219 215 214 231 215 218 241 251 274 283 274 271 273 275 278 282 279 279 280 292 295 285 282 280 282 286 291
253 108 7 303 86 135 149 260 117 77 73 306 101 229 167 181 174 120 86 132 134 271 136 205 247 165 193 194 213 166 217 201 176 228 221 132 327 227 235 235 149 223 240 171 138 293 114 289 139 221 282 275 266 254 268 247 248 265 249 233 232 228 237 232 235 236 226 256 259 259 269 277 272 258 268 267 262 270 287 284 269 268 274 274 276 281 288 294
335 129 253 119 77 62 88 163 89 37 119 348 101 215 152 190 210 160 174 186 143 178 188 203 176 94 78 171 208 237 22 87 95 93 173 155 201 214 158 277 128 138 187 143 168 303 117 257 86 81 342 298 1 15 289 270 254 254 272 244 227 217 231 234 222 219 192 228 243 266 265 261 267 271 226 245 261 261 263 272 278 272 264 268 274 279 287 294
286 140 115 74 101 242 122 48 349 63 242 216 149 185 172 216 156 138 93 92 51 53 181 181 159 119 89 162 229 189 42 87 105 93 88 97 105 87 76 97 85 153 164 165 147 138 183 168 344 8 341 260 278 312 322 316 312 301 271 241 211 208 214 261 253 228 212 207 227 221 242 235 266 290 327 289 288 282 279 271 279 288 281 274 275 282 286 288